TIME,DELAY(SENSOR),PRES,T(CTD),SAL,OXYGEN,RAWTEMP,T(OPTODE),TCPHASE,FLUOR,BETA(BETA700),BETA(BETA412),BETA(BETA440),CDOM,C(CSC),ED(ED411.90),ED(ED443.80),ED(ED489.40),ED(ED554.70),LU(LU412.20),LU(LU443.80),LU(LU489.40),LU(LU555.00),COMP,TILTX,TILTX(TILTY),CHECK
1352042330,5805,497.2300109863281000,17.3668003082275400,36.4352989196777340,227.7458953857422000,190.4243011474609400,17.3729801177978500,32.1431694030761700,50,103,62,70,50,1822,2147490194,2147769179,2147558098,2147796288,2147317851,2147480210,2147713088,2148242203,1179,7,12,24344
1352042453,5802,485.8099975585937500,17.4787998199462900,36.4576988220214840,229.1972961425781200,186.9667053222656200,17.4781799316406250,32.0234794616699200,50,103,61,70,51,1824,2147487195,2147767506,2147557741,2147794953,2147313801,2147483044,2147714825,2148245833,1686,7,13,38731
1352042574,5804,474.8299865722656000,17.5774002075195300,36.4757003784179700,230.5021972656250000,183.8919982910156200,17.5717391967773440,31.9166603088378900,50,103,62,70,50,1822,2147487597,2147760374,2147558098,2147795373,2147319506,2147481627,2147709321,2148244233,2750,7,13,20001
1352042697,5802,463.9400024414062500,17.6515007019042970,36.4891014099121100,231.6723937988281200,181.4062042236328000,17.6473999023437500,31.8250007629394530,50,104,62,71,50,1824,2147488466,2147767588,2147555136,2147794880,2147312393,2147480795,2147710272,2148243492,2248,7,13,410
1352042818,5804,453.3200073242187500,17.7189006805419920,36.5000000000000000,232.1763000488281200,179.1150054931640600,17.7171306610107420,31.7693691253662100,49,103,60,69,50,1824,2147487350,2147767378,2147554742,2147796260,2147316123,2147480210,2147707190,2148247076,715,7,13,13940
1352042950,5803,441.9299926757812500,17.7766990661621100,36.5097007751464840,231.7740020751953000,177.2606964111328000,17.7735691070556640,31.7639408111572270,49,103,63,73,50,1823,2147488155,2147767122,2147556169,2147794541,2147316763,2147479405,2147707840,2148242825,794,7,12,45800
1352043073,5801,431.6799926757812500,17.8477001190185550,36.5204010009765600,231.8502960205078000,174.8735961914062500,17.8462390899658200,31.7277507781982420,49,102,63,69,50,1824,2147490066,2147767844,2147558619,2147793618,2147314368,2147480576,2147712054,2148241453,1179,7,13,32433
1352043216,5802,420.1499938964844000,17.9302997589111330,36.5364990234375000,232.8276062011718800,172.2095947265625000,17.9273490905761720,31.6440296173095700,50,105,62,69,50,1827,2147490697,2147764745,2147556690,2147793691,2147317366,2147478774,2147708077,2148240731,1184,6,13,41807
1352043350,5804,409.7300109863281000,17.9782009124755860,36.5429992675781250,232.6067047119140600,170.6307983398437500,17.9754199981689450,31.6334991455078120,49,103,62,69,50,1827,2147484717,2147765805,2147553856,2147793152,2147312182,2147483428,2147710070,2148240950,1028,7,13,25711
1352043493,5803,398.6900024414062500,18.0174007415771500,36.5489006042480500,232.4033050537109400,169.2825012207031200,18.0164794921875000,31.6252593994140620,50,103,61,69,49,1828,2147490816,2147767643,2147555940,2147796388,2147311744,2147484653,2147705243,2148239140,1464,7,12,11048
1352043647,5802,386.1400146484375000,18.0890007019042970,36.5601997375488300,232.7760925292968800,166.8856964111328000,18.0894699096679700,31.5748100280761720,49,102,59,71,50,1829,2147491227,2147767698,2147555803,2147793801,2147315282,2147484388,2147707072,2148241581,2121,7,13,41224
1352043760,5804,374.9599914550781000,18.1622009277343750,36.5716018676757800,233.6540985107422000,164.2756042480468800,18.1689701080322270,31.4969196319580080,49,103,61,70,50,1831,2147491090,2147765330,2147557714,2147792457,2147313453,2147483401,2147708772,2148244169,2942,7,12,34405
1352043870,5803,363.7900085449219000,18.2308998107910160,36.5783996582031250,233.0254974365234400,162.3065948486328000,18.2289505004882800,31.5009593963623050,50,103,62,70,50,1832,2147491264,2147765933,2147556397,2147791926,2147311963,2147477942,2147706880,2148241179,534,7,13,23332
1352043982,5802,352.2999877929687500,18.2719993591308600,36.5803985595703100,232.1750946044922000,160.8867034912109400,18.2721996307373050,31.5231208801269530,49,104,61,70,50,1831,2147493787,2147764096,2147553682,2147791186,2147307794,2147480914,2147706752,2148239067,1046,8,13,44625
1352044092,5801,340.9299926757812500,18.3339996337890620,36.5867996215820300,231.5012054443359400,158.7100982666015600,18.3385200500488280,31.5268592834472660,50,104,62,70,51,1829,2147493284,2147766125,2147556763,2147790674,2147311030,2147482733,2147704064,2148241792,1646,7,13,12493
1352044202,5802,329.5499877929687500,18.4130992889404300,36.5926017761230500,230.3677978515625000,156.2733001708984400,18.4127693176269530,31.5495204925537100,49,105,61,69,51,1832,2147492745,2147764580,2147559698,2147792521,2147317613,2147476324,2147707136,2148241106,2078,7,12,36157
1352044319,5805,318.7099914550781000,18.4787998199462900,36.5961990356445300,229.6405944824218800,154.1343994140625000,18.4779605865478500,31.5566902160644530,49,103,62,69,50,1833,2147494445,2147762678,2147558683,2147790573,2147306505,2147483821,2147709705,2148241590,2332,7,12,1553
1352044462,5804,307.4899902343750000,18.5468997955322270,36.5993003845214840,228.9889984130859400,151.8437042236328000,18.5477790832519530,31.5580005645751950,50,103,62,69,50,1834,2147489773,2147763090,2147559972,2147790464,2147318857,2147484114,2147708123,2148240475,2920,7,13,58097
1352044607,5803,296.4899902343750000,18.6100997924804700,36.5956993103027340,229.7062988281250000,149.9535064697265600,18.6054096221923830,31.4973602294921880,49,104,61,69,51,1834,2147495936,2147762075,2147562459,2147789641,2147314660,2147486436,2147710153,2148238345,479,8,12,16717
1352044761,5805,285.5499877929687500,18.7082004547119140,36.5854988098144500,231.2745056152343800,146.5561065673828000,18.7089900970459000,31.3749504089355470,50,101,61,70,50,1835,2147492598,2147764315,2147565220,2147791926,2147310774,2147483602,2147709586,2148239186,1230,7,12,58469
1352044936,5803,272.4100036621094000,18.9528999328613280,36.6119995117187500,228.3979034423828000,138.5126953125000000,18.9543399810791000,31.4087390899658200,50,103,62,70,50,1837,2147495268,2147766080,2147571309,2147792685,2147315291,2147484790,2147711131,2148240886,2792,7,12,23722
1352045057,5800,261.2000122070312500,19.0797996520996100,36.6072998046875000,227.8067016601562500,134.3780975341797000,19.0805091857910160,31.3828601837158200,50,103,60,69,50,1837,2147492882,2147768164,2147574793,2147791213,2147301650,2147486345,2147715574,2148241627,3168,7,12,60847
1352045180,5804,249.3600006103515600,19.1805992126464840,36.5941009521484400,235.9060974121093800,131.2554016113281200,19.1758403778076170,30.9488391876220700,50,104,61,68,51,1837,2147495680,2147770221,2147579136,2147793746,2147314843,2147494080,2147720219,2148237394,348,7,12,8444
1352045290,5802,238.3999938964843800,19.2576999664306640,36.5928001403808600,239.6040039062500000,128.5653076171875000,19.2579708099365230,30.7398796081542970,50,103,62,71,50,1836,2147494464,2147771026,2147594267,2147791936,2147316827,2147485577,2147725037,2148239862,1225,7,12,18514
1352045400,5802,227.2599945068359400,19.3474998474121100,36.5985984802246100,238.0464019775390600,125.6901016235351600,19.3457794189453120,30.7749900817871100,49,104,62,70,51,1837,2147493778,2147777627,2147611474,2147786678,2147309851,2147493302,2147730441,2148239277,1574,7,12,59128
1352045521,5806,215.6600036621093800,19.4202995300292970,36.6007995605468750,237.6154022216797000,123.3583984375000000,19.4170093536376950,30.7646503448486330,50,103,61,70,50,1838,2147498761,2147781851,2147629732,2147789824,2147307675,2147496566,2147747913,2148240713,1586,7,12,50507
1352045671,5803,204.8099975585937500,19.4666004180908200,36.5955009460449200,239.7893981933593800,121.9262008666992200,19.4607601165771500,30.6442699432373050,50,104,61,70,50,1839,2147497993,2147792338,2147659501,2147790272,2147308324,2147501933,2147762706,2148240009,1485,7,12,29151
1352045781,5805,198.0200042724609400,19.4622993469238280,36.5868988037109400,242.8130035400390600,121.9869003295898400,19.4589099884033200,30.5059204101562500,50,105,62,70,50,1837,2147501056,2147795931,2147684900,2147786541,2147308937,2147509504,2147774034,2148241060,1860,7,12,5187
1352045858,5804,194.2599945068359400,19.4948997497558600,36.5871009826660160,243.9969024658203000,121.0602035522461000,19.4872207641601560,30.4397392272949220,50,104,61,71,50,1838,2147499858,2147801371,2147696118,2147787739,2147311314,2147510555,2147779346,2148241910,2057,7,13,602
1352045957,5803,191.3500061035156200,19.5363006591796880,36.5923004150390600,244.4488983154297000,119.7315979003906200,19.5278205871582030,30.4020195007324220,50,104,62,70,50,1839,2147504822,2147804260,2147706980,2147787922,2147309129,2147513124,2147783835,2148239478,2347,7,12,52916
1352046133,5806,187.3300018310547000,19.5727996826171880,36.5970001220703100,243.5541992187500000,118.4429016113281200,19.5672092437744140,30.4259605407714840,49,105,62,71,50,1840,2147501348,2147810742,2147725248,2147787584,2147313600,2147510893,2147795520,2148244114,1797,7,12,59886
1352046263,5804,182.7200012207031200,19.6145000457763670,36.5979003906250000,242.9537048339843800,116.9050979614257800,19.6142101287841800,30.4331798553466800,50,107,62,69,50,1841,2147505179,2147817353,2147754404,2147788534,2147312338,2147521892,2147807588,2148242916,1209,8,12,50740
1352046351,5803,178.5899963378906200,19.6679000854492200,36.6021995544433600,242.7378997802734400,115.4011001586914000,19.6601905822753900,30.4234409332275400,50,103,63,69,50,1840,2147504210,2147827401,2147778651,2147786294,2147307154,2147527414,2147825764,2148242697,1513,7,12,45989
1352046439,5803,174.2400054931640600,19.7110004425048830,36.5990982055664060,243.7270050048828000,113.9880981445312500,19.7033901214599600,30.3601207733154300,50,106,61,70,50,1838,2147507410,2147839149,2147815076,2147787584,2147310939,2147537024,2147842285,2148245613,1672,7,12,31273
1352046518,5803,170.2700042724609400,19.7325000762939450,36.5998992919921900,244.4416961669922000,113.1835021972656200,19.7279891967773440,30.3171501159667970,50,106,61,71,50,1840,2147513938,2147852772,2147850989,2147786880,2147311222,2147541732,2147866587,2148245211,1847,7,12,22524
1352046595,5802,166.5200042724609400,19.7698001861572270,36.6031990051269500,244.7373962402343800,111.9804992675781200,19.7647800445556640,30.2882404327392580,50,104,62,71,50,1840,2147513545,2147867126,2147890944,2147786971,2147317028,2147551963,2147881673,2148249883,1697,7,13,41210
1352046683,5803,162.2500000000000000,19.8472003936767580,36.6111984252929700,244.5066986083984400,109.4514007568359400,19.8421401977539060,30.2658290863037100,50,106,61,71,50,1841,2147520009,2147887213,2147941193,2147790546,2147315922,2147557659,2147906898,2148246390,1710,7,12,5164
1352046760,5804,158.8999938964843800,19.9270000457763670,36.6190986633300800,243.3018951416015600,106.9150009155273400,19.9197406768798830,30.2876701354980470,50,102,62,69,51,1840,2147523136,2147903661,2147986724,2147785673,2147313206,2147572224,2147931254,2148249115,1283,7,12,51898
1352046861,5804,155.0800018310547000,20.0004005432128900,36.6269989013671900,242.1307067871093800,104.6150970458984400,19.9901199340820300,30.3109607696533200,51,106,62,71,50,1839,2147532224,2147927808,2148036644,2147784832,2147321938,2147583040,2147960530,2148249481,1222,7,12,42649
1352046982,5802,151.2799987792968800,20.1147003173828120,36.6286010742187500,241.3836975097656200,101.2426986694336000,20.0933494567871100,30.3013706207275400,51,107,62,70,50,1839,2147537984,2147943936,2148087131,2147788525,2147322550,2147593417,2147982637,2148253650,1356,7,12,62969
1352047139,5800,145.7899932861328000,20.2921009063720700,36.6374015808105500,241.9275054931640600,95.2546310424804700,20.2767391204834000,30.1990604400634770,51,109,61,71,50,1838,2147558601,2147995529,2148209408,2147789138,2147331126,2147617152,2148045376,2148254308,1633,7,13,355
1352047205,5804,141.8699951171875000,20.3535995483398440,36.6421012878418000,242.2953948974609400,93.0432662963867200,20.3444900512695300,30.1539001464843750,53,113,63,70,51,1837,2147572589,2148040758,2148314980,2147790208,2147342244,2147641316,2148097289,2148261494,1887,7,13,54358
1352047260,5804,138.4400024414062500,20.4398002624511720,36.6491012573242200,242.0314025878906200,90.3441314697265600,20.4272193908691400,30.1309795379638670,52,113,62,72,51,1837,2147588982,2148090322,2148418797,2147789668,2147343844,2147668352,2148146715,2148261120,1880,8,13,52897
1352047315,5804,135.1499938964843800,20.5067996978759770,36.6512985229492200,241.5065002441406200,87.8497390747070300,20.5036907196044920,30.1227607727050780,53,112,62,70,51,1837,2147607570,2148132022,2148523821,2147790491,2147349888,2147690477,2148201106,2148267922,1835,7,13,20848
1352047381,5803,131.6399993896484400,20.6401996612548830,36.6556015014648440,241.1127014160156200,84.3549499511718800,20.6108703613281250,30.0958595275878900,55,116,62,71,50,1837,2147635547,2148196626,2148653842,2147794468,2147368329,2147725814,2148267419,2148266962,1411,7,13,60445
1352047471,5802,127.6500015258789000,20.7481002807617200,36.6642990112304700,241.1501007080078000,80.4837036132812500,20.7296504974365230,30.0442409515380860,56,115,61,70,50,1836,2147663286,2148266441,2148811154,2147793508,2147382820,2147763483,2148338185,2148278016,1026,7,13,52505
1352047581,5805,124.2399978637695300,20.9482002258300780,36.6763000488281250,240.6963043212890600,74.0330734252929700,20.9276905059814450,29.9822196960449220,57,114,62,71,51,1835,2147699291,2148335616,2148952969,2147794834,2147395620,2147797750,2148407579,2148280841,1055,7,13,54159
1352047803,5806,120.1100006103515600,21.2199993133544920,36.6927986145019500,237.9669952392578000,65.0543212890625000,21.2036209106445300,29.9920806884765620,60,120,62,71,50,1834,2147752603,2148428498,2149149760,2147799945,2147413147,2147836754,2148483529,2148283300,621,8,13,3853
1352047957,5805,115.8700027465820300,21.3584003448486330,36.7038993835449200,234.8370056152343800,60.1410713195800800,21.3547592163085940,30.0743598937988280,62,117,63,71,50,1831,2147833316,2148565312,2149430893,2147803556,2147447789,2147900790,2148601673,2148292836,579,7,13,41417
1352048069,5805,110.9800033569336000,21.5193004608154300,36.7002983093261700,233.9806976318359400,55.5305290222168000,21.4966793060302730,30.0555896759033200,62,120,63,70,51,1831,2147943478,2148778422,2149857133,2147813504,2147494738,2147999689,2148796278,2148310189,796,8,12,237
1352048135,5805,107.2500000000000000,21.5335006713867200,36.6992988586425800,234.3896942138672000,54.5067291259765600,21.5282001495361330,30.0232791900634770,63,119,62,71,49,1831,2148059593,2148982080,2150247972,2147824356,2147534637,2148093284,2148962139,2148322002,1187,8,12,26509
1352048201,5803,103.6900024414062500,21.6422004699707030,36.6805992126464840,235.3332977294922000,50.4409408569335940,21.6534500122070300,29.9272098541259770,67,124,61,70,50,1829,2148193042,2149185005,2150628525,2147834450,2147582784,2148180946,2149126857,2148337408,1326,6,12,59625
1352048311,5802,100.1999969482421900,21.9757003784179700,36.6761016845703100,236.5135955810547000,40.3081817626953100,21.9659194946289060,29.7435302734375000,72,125,63,71,50,1824,2148381677,2149476553,2151125357,2147850861,2147641307,2148275894,2149269824,2148352960,3504,7,12,41564
1352048368,5804,98.9000015258789000,22.0585002899169920,36.6808013916015600,236.3536987304687500,37.1901702880859400,22.0621700286865230,29.7113094329834000,75,123,61,72,50,1823,2148488155,2149636781,2151401042,2147860288,2147669248,2148322413,2149364123,2148360923,2466,6,13,62971
1352048423,5805,97.1299972534179700,22.4486999511718750,36.6464004516601560,235.4158020019531200,27.2595100402832030,22.3690299987792970,29.6287097930908200,76,131,62,71,50,1822,2148613622,2149821266,2151740150,2147869376,2147716096,2148390637,2149472064,2148369682,2892,6,12,30241
1352048478,5800,95.4300003051757800,22.4701995849609380,36.6599998474121100,236.0043029785156200,24.2284393310546880,22.4627895355224600,29.5631008148193360,79,130,63,72,50,1821,2148718144,2150000804,2152054610,2147885988,2147753746,2148455158,2149609965,2148386486,2108,6,13,11445
1352048533,5802,94.7200012207031200,22.5006008148193360,36.6468009948730500,236.4069976806640600,23.3927803039550780,22.4886493682861330,29.5341606140136720,78,125,63,70,49,1821,2148739648,2150014290,2152099126,2147883392,2147763693,2148471369,2149633600,2148387099,1398,7,12,34633
1352049065,5805,91.9899978637695300,23.3222007751464840,36.5306015014648440,238.4736938476562500,-3.3855199813842773,23.3192691802978500,29.1035499572753900,74,127,62,72,50,1815,2149033965,2150332196,2152652022,2147907574,2147887195,2148598875,2149829412,2148409179,941,6,12,63367
1352049131,5805,90.4800033569336000,23.3894004821777340,36.5195007324218750,238.9051055908203000,-5.2291450500488280,23.3766098022460940,29.0610103607177730,72,126,63,72,50,1816,2149148342,2150499794,2152929170,2147919561,2147935725,2148673810,2149948297,2148420553,953,7,12,20614
1352049353,5804,88.7200012207031200,24.0011997222900400,36.4087982177734400,239.0234069824218800,-24.2712192535400400,23.9700107574462900,28.8185501098632800,69,128,64,74,50,1813,2149295113,2150686857,2153259492,2147932050,2148017078,2148788022,2150112274,2148436617,671,6,12,51959
1352049773,5803,85.8600006103515600,24.1473007202148440,36.4216995239257800,239.7500000000000000,-29.5811100006103500,24.1358890533447270,28.7202091217041000,69,127,63,73,50,1816,2149617408,2151088219,2153920603,2147975753,2148195373,2149019757,2150455396,2148472795,3137,8,12,28790
1352049828,5802,84.4499969482421900,24.1623992919921880,36.4188995361328100,239.5131072998047000,-30.0391101837158200,24.1502094268798830,28.7250709533691400,69,131,63,72,49,1817,2149771565,2151294189,2154266468,2147992310,2148272950,2149126912,2150626715,2148491602,2872,8,12,57102
1352049951,5803,81.9899978637695300,24.1926994323730470,36.4059982299804700,239.2098999023437500,-31.1871299743652340,24.1861000061035160,28.7243690490722660,70,134,63,74,49,1813,2150159945,2151816201,2155156763,2148047085,2148525577,2149463067,2151123995,2148544512,3284,8,12,14732
1352050006,5804,79.6200027465820300,24.2014999389648440,36.3936996459960940,239.6880950927734400,-31.6704101562500000,24.2012100219726560,28.6971206665039060,70,134,64,74,49,1812,2150557997,2152349440,2156037421,2148107273,2148754907,2149763602,2151572315,2148593792,3417,8,12,60325
1352050061,5807,76.7500000000000000,24.1951999664306640,36.3708992004394500,240.3605957031250000,-31.5440292358398440,24.1972599029541000,28.6687297821044920,73,134,63,74,50,1812,2151101778,2153084123,2157213019,2148197632,2149062180,2150173293,2152183725,2148666770,44,8,12,35654
1352050116,5806,73.8300018310546900,24.2017002105712900,36.3656005859375000,240.8477020263672000,-31.6436595916748050,24.2003707885742200,28.6460609436035160,75,139,63,74,49,1806,2151767606,2153944155,2158587520,2148309357,2149416173,2150628251,2152874404,2148751451,495,8,12,35560
1352050171,5805,70.7900009155273400,24.1989994049072270,36.3616981506347660,241.3910064697265600,-31.5361595153808600,24.1970100402832030,28.6232204437255860,75,137,64,73,49,1806,2152579712,2155010825,2160241170,2148461476,2149853165,2151175168,2153682669,2148859337,369,8,12,22514
1352050228,5805,67.6399993896484400,24.1881999969482420,36.3544998168945300,241.7671051025390600,-31.2533092498779300,24.1881694793701170,28.6101703643798830,76,139,65,73,50,1804,2153646107,2156416009,2162375442,2148669348,2150430601,2151893110,2154723117,2149005549,289,8,11,29870
1352050283,5806,64.7500000000000000,24.1914997100830080,36.3536987304687500,241.8580017089843800,-31.3553009033203120,24.1913604736328120,28.6049995422363280,76,141,64,76,50,1802,2154733485,2157816064,2164454445,2148901357,2151018587,2152610560,2155757595,2149159158,178,8,12,18611
1352050338,5805,62.1699981689453100,24.1928005218505860,36.3526992797851560,242.0126037597656200,-31.3947391510009770,24.1925907135009770,28.5976600646972660,77,140,63,75,50,1802,2155920630,2159313929,2166595565,2149158116,2151630884,2153354861,2156837650,2149313526,3349,8,12,43312
1352050393,5803,59.7799987792968750,24.1926002502441400,36.3535003662109400,242.0773010253906200,-31.4056491851806640,24.1929302215576170,28.5945396423339840,76,140,64,74,51,1800,2157316022,2161068690,2169163922,2149471808,2152332022,2154195547,2158032694,2149506550,3015,8,12,33484
1352050448,5804,57.2700004577636700,24.1930999755859380,36.3516998291015600,242.1549072265625000,-31.4095897674560550,24.1930503845214840,28.5912609100341800,77,141,63,73,49,1797,2158863926,2162933147,2171705408,2149848420,2153155456,2155169170,2159415707,2149741165,2706,8,12,38509
1352050503,5803,54.6399993896484400,24.2099990844726560,36.3550987243652340,242.1515960693359400,-31.8846092224121100,24.2079105377197270,28.5854301452636720,78,141,64,75,49,1798,2160965686,2165548708,2175410020,2150418066,2154265938,2156482916,2161225170,2150064859,2560,8,12,27471
1352050647,5803,49.2599983215332000,24.2201004028320300,36.3493995666503900,242.1533050537109400,-32.2461318969726560,24.2192096710205080,28.5809707641601560,81,142,63,75,49,1797,2165867145,2171434066,2183334948,2151926500,2156888886,2159504941,2165310957,2150886765,1848,8,12,12370
1352050681,5803,47.9700012207031250,24.2238006591796880,36.3400993347168000,242.3802947998047000,-32.4295501708984400,24.2249507904052730,28.5687694549560550,80,140,63,75,49,1798,2167121307,2172912969,2185327085,2152308653,2157670701,2160354596,2166409901,2151107977,1647,7,12,23215
1352050714,5806,46.7200012207031250,24.2264995574951170,36.3389015197753900,242.5166015625000000,-32.5184593200683600,24.2277297973632800,28.5616302490234380,79,145,64,74,49,1796,2168916662,2175148315,2188421796,2152930797,2158564278,2161389257,2167723099,2151396992,1513,8,12,15465
1352050771,5802,44.7500000000000000,24.2378005981445300,36.3334999084472660,242.5724029541015600,-32.8664093017578100,24.2386093139648440,28.5549201965332030,78,140,63,76,50,1795,2171457682,2178163163,2192350116,2153781613,2160006528,2163005705,2169711268,2151832658,1257,8,12,46789
1352050828,5804,42.7999992370605500,24.2541999816894530,36.3260993957519500,242.7021942138672000,-33.3811607360839840,24.2547092437744140,28.5428600311279300,76,139,63,74,48,1792,2173954898,2181074797,2196031040,2154701403,2161798957,2165038747,2172109248,2152388086,1009,8,12,57598
1352050884,5804,40.8100013732910160,24.2693996429443360,36.3199005126953100,242.9219055175781200,-33.8913917541503900,24.2706794738769530,28.5269699096679700,73,142,64,76,49,1793,2178482459,2186504950,2203239734,2156558811,2164145764,2167633554,2175357467,2153155245,1116,8,12,25940
1352050929,5803,38.5600013732910160,24.2845001220703120,36.3157005310058600,243.1629028320312500,-34.3391685485839840,24.2846908569335940,28.5107707977294920,73,141,64,75,50,1789,2182279104,2190521801,2207899218,2158202788,2166667309,2170385124,2178690660,2154007835,1301,7,12,12377
1352050962,5805,36.7500000000000000,24.2921009063720700,36.3148994445800800,243.3251953125000000,-34.5835609436035160,24.2923297882080080,28.5006294250488280,72,138,64,75,49,1789,2185899675,2194478875,2212518866,2160000246,2169085266,2173001280,2181790381,2154833234,1530,7,12,58362
1352051007,5806,34.2000007629394500,24.2968006134033200,36.3128013610839840,243.5478973388672000,-34.7072792053222660,24.2961997985839840,28.4895896911621100,70,140,65,75,50,1789,2192357092,2201889636,2221923017,2163338962,2172782518,2177021632,2186595154,2156169243,1657,8,12,7435
1352051040,5805,32.2999992370605500,24.2989006042480470,36.3123016357421900,243.6121063232422000,-34.8222503662109400,24.2998008728027340,28.4852790832519530,69,138,64,75,50,1788,2195526006,2204737965,2224457243,2164801490,2175305499,2179562788,2189162678,2156894893,1681,8,12,57995